Regional Weather Roundup
Issued by NWS Sterling, VA

Home | Current Version | Previous Version | Graphics & Text | Print | Product List | Glossary On
Versions: 1 2 3 4 5 6 7 8 9 10 11 12 13 14 15 16 17 18 19 20 21 22 23 24 25 26 27 28 29 30 31 32 33 34 35 36 37 38 39 40 41 42 43 44 45 46 47 48 49 50
000
ASUS41 KLWX 280810
RWRLWX

REGIONAL WEATHER ROUNDUP
NATIONAL WEATHER SERVICE BALTIMORE MD/WASHINGTON DC
300 AM EST FRI NOV 28 2014

Note: "FAIR" indicates few or no clouds below 12,000 feet
with no significant weather and/or obstructions to visibility.
 TC=TEMPERATURE CELSIUS

 * =Non NWS site. Station does not report precipitation (e.g. rain,
    snow, etc.), thunder, or fog.

DCZ001-MDZ009-015-VAZ040>042-051-053>054-280900-
WASHINGTON METRO

CITY           SKY/WX    TMP DP  RH WIND       PRES   REMARKS
WASHINGTON NAT CLEAR     36  21  54 W7        30.22R
DULLES         PTCLDY    32  21  64 NW15      30.21S WCI  22
ANDREWS AFB    CLEAR     33  22  62 W10       30.19R WCI  25
FT BELVOIR     CLEAR     33  22  63 W6        30.23R
QUANTICO       CLEAR     33  21  61 NW7       30.24R
COLLEGE PARK*  CLEAR     34  23  64 W5        30.20S
LEESBURG*      CLEAR     32  27  80 NW7       30.21S
MANASSAS*      CLEAR     32  23  69 NW12      30.22S WCI  23
GAITHERSBURG*  PTCLDY    30  19  64 W10       30.21S WCI  21

$$

MDZ006>007-011-014-280900-
BALTIMORE METRO

CITY           SKY/WX    TMP DP  RH WIND       PRES   REMARKS
BWI AIRPORT    PTCLDY    32  22  66 W6        30.18R
MD SCIENCE CTR   N/A     34  21  59 MISG      30.18R
MARTIN STATE   CLEAR     34  27  75 W8        30.19R WCI  27
ANNAPOLIS      FAIR      35  23  61 W7        30.18R
FORT MEADE*    CLEAR     32  23  69 W6        30.21S

$$

MDZ012-015-019>023-280900-
MARYLAND EASTERN SHORE

CITY           SKY/WX    TMP DP  RH WIND       PRES   REMARKS
OCEAN CITY     MOCLDY    32  29  88 NW5       30.16R
SALISBURY      CLOUDY    37  30  75 NW8       30.16R
BAY BRIDGE AP*   N/A     36  23  60 NW13G18   30.19R WCI  27
CAMBRIDGE*     PTCLDY    37  25  60 NW15G28   30.18R WCI  28
EASTON*        PTCLDY    37  26  65 N16G28    30.21R WCI  28

$$

MDZ017>025-280900-
SOUTHERN MARYLAND

CITY           SKY/WX    TMP DP  RH WIND       PRES   REMARKS
PATUXENT RIVER CLEAR     35  23  61 W15G23    30.20R WCI  25
ST INIGOES     CLEAR     35  21  56 NW12G18   30.20R WCI  27
LEONARDTOWN*   CLEAR     34  23  64 W5        30.22R

$$

MDZ003>005-280900-
NORTH CENTRAL MARYLAND

CITY           SKY/WX    TMP DP  RH WIND       PRES   REMARKS
FREDERICK*     CLEAR     34  23  64 W12       30.22S WCI  25
HAGERSTOWN APT PTCLDY    31  22  69 NW10      30.18R WCI  22
WESTMINSTER*   CLOUDY    32  25  74 W9        30.15S WCI  24

$$

MDZ501>502-280900-
WESTERN MARYLAND

CITY           SKY/WX    TMP DP  RH WIND       PRES   REMARKS
OAKLAND*       CLOUDY    21 N/A N/A W10       30.10S WCI  10
CUMBERLAND*    MOCLDY    32  21  64 W5        30.25R

$$

VAZ025>031-280900-
SHENANDOAH VALLEY

CITY           SKY/WX    TMP DP  RH WIND       PRES   REMARKS
WINCHESTER*    MOCLDY    32  19  59 NW12      30.21R WCI  23
FRONT ROYAL*   CLOUDY    32  21  64 CALM      30.21S
LURAY*         CLOUDY    32  27  80 S6        30.21S
NEW MARKET*    CLOUDY    29  24  79 CALM      30.22R
STAUNTON*      CLOUDY    26  20  78 CALM      30.23S
WAYNESBORO*    FAIR      27  19  69 W7        30.20S

$$

WVZ021-048>050-054>055-280900-
EASTERN WEST VIRGINIA PANHANDLE

CITY           SKY/WX    TMP DP  RH WIND       PRES   REMARKS
MARTINSBURG    MOCLDY    33  19  56 W8        30.21R WCI  26
PETERSBURG*    CLOUDY    30  21  68 CALM      30.23S

$$

VAZ036>039-050-280900-
CENTRAL FOOTHILLS

CITY           SKY/WX    TMP DP  RH WIND       PRES   REMARKS
CHARLOTTESVILL CLEAR     33  18  53 NW7       30.22R
CULPEPER*      CLEAR     28  23  80 CALM      30.23R
ORANGE*        CLEAR     34  23  64 NW3       30.24R
GORDONSVILLE*  FAIR      32  20  62 CALM      30.22R
WARRENTON*     FAIR      29  26  86 CALM      30.22R

$$

VAZ055>057-280900-
NORTH AND CENTRAL PIEDMONT

CITY           SKY/WX    TMP DP  RH WIND       PRES   REMARKS
FREDERICKSBRG* CLEAR     30  26  86 NW3       30.23R
STAFFORD*      CLEAR     28  21  76 CALM      30.27R

$$

NCZ024-NYZ072-PAZ021-071-VAZ022-071-280900-
OTHER REGIONAL OBSERVATIONS

CITY           SKY/WX    TMP DP  RH WIND       PRES   REMARKS
NEW YORK CITY  CLEAR     32  21  64 W6        30.10S
PHILADELPHIA   MOCLDY    34  27  75 W6        30.14R
PITTSBURGH     FLURRIES  28  23  81 W12       30.23R WCI  18
ROANOKE        CLOUDY    31  21  66 NE5       30.27S
RICHMOND       PTCLDY    34  24  67 W5        30.23R
RALEIGH        CLEAR     34  20  56 NW5       30.29R

$$

ANZ530>537-280900-
MARINE OBSERVATIONS

STATION/POSITION TIME  TEMP    WIND        PRES
                       AIR SEA DIR/SP/G
                 (UTC) (F)     (DEG/KT/KT) (MB)
THOMAS PT LIGHT  0800   36 47  300/ 16/ 18 1023.2R
BALT KEY BRIDGE  0800   36     290/ 17/ 20 1021.5F
COVE POINT       0800   36     330/ 11/ 15 1022.4R
LEWISETTA        0800   38 46  330/ 17/ 22 1022.8R
SOLOMONS ISLAND  0800      48                N/A
PINEY POINT      0800          340/ 22/ 26   N/A

$$




USA.gov is the U.S. government's official web portal to all federal, state and local government web resources and services.